Regional Weather Roundup
Issued by NWS Bismarck, ND

Home | Current Version | Previous Version | Text Only | Print | Product List | Glossary On
Versions: 1 2 3 4 5 6 7 8 9 10 11 12 13 14 15 16 17 18 19 20 21 22 23 24 25 26 27 28 29 30 31 32 33 34 35 36 37 38 39 40 41 42 43 44 45 46 47 48 49 50
000
ASUS43 KBIS 241510
RWRBIS

NWR BROADCAST TEXT
NATIONAL WEATHER SERVICE BISMARCK ND
1000 AM CDT THU APR 24 2014

NOTE: "FAIR" INDICATES FEW OR NO CLOUDS BELOW 12,000 FEET WITH NO
SIGNIFICANT WEATHER AND/OR OBSTRUCTIONS TO VISIBILITY.


CITY           SKY/WX    TMP DP  RH WIND       PRES   REMARKS
WILLISTON      SUNNY     47  31  53 W10       29.73R
MINOT          SUNNY     49  32  52 W17       29.67R
MINOT AFB      SUNNY     47  35  63 NW14      29.67S
BISMARCK       SUNNY     51  29  42 W14       29.75F
DICKINSON      SUNNY     51  25  36 W22       29.75R
GARRISON         N/A     47  35  63 W15       29.71S
HETTINGER ARPT PTSUNNY   51  28  41 W18       29.80F
JAMESTOWN      FOG       39  39 100 S3        29.71F VSB 1/2
CARRINGTON     FAIR      43  43 100 W12       29.72S
CROSBY         CLOUDY    43  41  93 W10       29.70R
HARVEY         FAIR      46  37  71 W10       29.70S
HAZEN          FAIR      48  32  53 W13       29.74F
LINTON         FAIR      50  32  50 NW15      29.75F
MANDAN         FAIR      50  28  43 W16G22    29.75S
OAKES          FAIR      41  41 100 SE6       29.73F FOG
RUGBY          FAIR      41  41 100 SW5       29.68F
STANLEY        FAIR      45  32  61 W18G28    29.69S
TIOGA          FAIR      45  32  61 W16       29.72S
WATFORD CITY   FAIR      48  28  46 W17G23    29.71S
$$

CITY           SKY/WX    TMP DP  RH WIND       PRES   REMARKS
GRAND FORKS    LGT RAIN  41  39  93 SE12      29.76S
GRAND FORKS AF MIX PCPN  42  42 100 SE10      29.75F
DEVILS LAKE    CLOUDY    39  36  87 S9        29.70F
FARGO          LGT RAIN  42  40  92 SE6       29.76S FOG
CANDO          FOG       39  39 100 S9        29.70F VSB 3/4
CAVALIER       CLOUDY    39  39 100 SE9       29.75F FOG
GRAFTON        CLOUDY    39  39 100 SE10      29.76F FOG
GWINNER        MOSUNNY   43  43 100 SE7       29.75F
LANGDON        FOG       39  37  93 S10       29.71F VSB 1/2
ROLLA          FOG       37  37 100 S12       29.70R VSB<1/4
WALHALLA         N/A     39  39 100 SE10      29.75F FOG
$$

CITY           SKY/WX    TMP DP  RH WIND       PRES   REMARKS
ABERDEEN       CLOUDY    48  41  76 W8        29.75F
MOBRIDGE       SUNNY     51  29  42 NW10      29.75S
BUFFALO          N/A     48  31  51 W26       29.77F
RAPID CITY     SUNNY     54  21  27 NW5       29.85F
GLASGOW        MOSUNNY   46  31  55 W13       29.77S
SIDNEY         SUNNY     48  28  46 W17       29.76S
WOLF POINT     SUNNY     47  29  49 W15       29.77R
GLENDIVE       SUNNY     48  25  40 W18G26    29.79S
MILES CITY     SUNNY     51  24  34 NW17      29.82F
BAKER          SUNNY     49  24  37 NW21      29.82S
$$

CITY           SKY/WX    TMP DP  RH WIND       PRES   REMARKS
BILLINGS       MOSUNNY   47  26  44 VRB5      29.85S
GREAT FALLS    PTSUNNY   47  31  53 SW18      29.78F
REGINA         CLOUDY    41  36  81 W17       29.66R
ESTEVAN        PTSUNNY   45  43  93 N9        29.68R
$$




USA.gov is the U.S. government's official web portal to all federal, state and local government web resources and services.